[[{"header":{"parameterUnit":"m.s-1","parameterCategory":1,"la1":30.2991,"la2":30.254,"lo1":-89.0895,"lo2":-89.0444,"dy":0.0017,"dx":0.0017,"nx":28,"ny":28,"refTime":"2024-05-23T21:00:00:Z","depth":0,"parameterNumber":2,"parameterNumberName":"U-component_of_WINDS"},"data":[0,0,0,0,0,0,0,0,0,0,0,0,0,0,0,0,0,0,0,0,0,0,0,0,0,0,0,0,0,0,0,0,0,0,0,0,0,0,0,0,0,0,0,0,0,0,0,0,0,0,0,0,0,0,0,0,0,0,-1.508,-1.5081,0,-1.5215,-1.5217,-1.5218,-1.5259,-1.5259,-1.5258,-1.5257,-1.5398,-1.5402,-1.5407,0,0,0,0,0,0,0,0,0,0,0,0,0,-1.4858,-1.4862,-1.508,-1.5081,-1.5083,-1.5215,-1.5217,-1.5219,-1.526,-1.5259,-1.5258,-1.5257,-1.5397,-1.5402,-1.5407,0,0,0,0,0,0,0,0,0,0,0,0,0,-1.497,-1.4864,-1.5079,-1.5119,-1.5124,-1.5215,-1.5217,-1.5219,-1.526,-1.5259,-1.5258,-1.5257,-1.5395,-1.5401,-1.5408,-1.5469,0,0,-1.5428,-1.5431,0,0,0,0,0,0,0,0,-1.4964,-1.4978,-1.5112,-1.5117,-1.5122,-1.5219,-1.5191,-1.5303,-1.526,-1.5208,-1.5257,-1.5256,-1.534,-1.5351,-1.5378,-1.5475,-1.5481,-1.5428,-1.5432,-1.5435,-1.5437,0,0,0,0,0,0,0,-1.4956,-1.4973,-1.5133,-1.5114,-1.512,-1.5131,-1.5146,-1.5212,-1.5278,-1.5213,-1.5216,-1.5231,-1.5342,-1.5372,-1.5382,-1.5484,-1.5428,-1.5434,-1.5438,-1.5441,-1.5639,-1.564,0,0,0,0,0,0,-1.4941,-1.4966,-1.5129,-1.5137,-1.5039,-1.5136,-1.5152,-1.5189,-1.5277,-1.529,-1.5232,-1.5233,-1.5361,-1.5374,-1.5387,-1.5465,-1.5435,-1.5441,-1.5445,-1.5637,-1.5639,-1.564,0,0,0,0,0,0,-1.4936,-1.4955,-1.5124,-1.5053,-1.5075,-1.5141,-1.5182,-1.5192,-1.5222,-1.5292,-1.5304,-1.525,-1.5361,-1.5378,-1.5448,-1.547,-1.5444,-1.545,-1.5636,-1.5638,-1.564,-1.5621,0,0,0,0,0,0,-1.493,-1.4953,-1.4977,-1.5053,-1.5079,-1.5182,-1.5183,-1.5196,-1.5233,-1.5235,-1.5312,-1.5324,-1.5361,-1.5438,-1.5455,-1.5479,-1.5455,-1.5634,-1.5637,-1.5639,-1.562,-1.5622,-1.5623,0,0,0,0,0,-1.4922,-1.4966,-1.4978,-1.4997,-1.5109,-1.5183,-1.5198,-1.5239,-1.5235,-1.5259,-1.5304,-1.5322,-1.5465,-1.5445,-1.5464,-1.549,-1.5633,-1.5636,-1.5639,-1.5619,-1.5621,-1.5623,0,0,0,0,0,0,-1.4891,-1.4977,-1.499,-1.5061,-1.5114,-1.519,-1.5222,-1.5241,-1.5297,-1.5297,-1.5347,-1.5364,-1.5431,-1.5468,-1.5444,-1.5555,-1.555,-1.5557,-1.5528,-1.5531,-1.5533,-1.5522,-1.5461,0,0,0,0,0,-1.4892,-1.4945,-1.5017,-1.5072,-1.5098,-1.5155,-1.5189,-1.5216,-1.5274,-1.5297,-1.5347,-1.5403,-1.5461,-1.5498,-1.5555,-1.5625,-1.5643,-1.5653,-1.5655,-1.5656,-1.5661,-1.5702,-1.5707,-1.565,-1.565,-1.565,0,0,-1.4896,-1.4949,-1.4979,-1.5067,-1.5112,-1.5166,-1.5174,-1.523,-1.5271,-1.5306,-1.5375,-1.5414,-1.548,-1.5551,-1.5584,-1.5584,-1.5681,-1.566,-1.566,-1.5665,-1.5706,-1.5711,-1.5716,-1.5652,-1.5652,-1.5652,0,0,-1.4929,-1.4975,-1.5026,-1.507,-1.5138,-1.5176,-1.5188,-1.5261,-1.5288,-1.5358,-1.5386,-1.5435,-1.5534,-1.558,-1.5616,-1.5668,-1.5686,-1.5685,-1.5695,-1.5734,-1.5739,-1.5743,-1.5762,-1.5768,-1.569,-1.569,-1.569,0,-1.4925,-1.5007,-1.505,-1.5105,-1.5143,-1.5177,-1.5229,-1.5271,-1.5354,-1.538,-1.5378,-1.5503,-1.5549,-1.5631,-1.5644,-1.5672,-1.5688,-1.5677,-1.5735,-1.5739,-1.5744,-1.5763,-1.5769,-1.569,-1.569,-1.569,-1.569,0,-1.4998,-1.5054,-1.5088,-1.5166,-1.5208,-1.5262,-1.5314,-1.5352,-1.5376,-1.5414,-1.5486,-1.5543,-1.5613,-1.5634,-1.5658,-1.572,-1.5718,-1.5725,-1.5721,-1.5748,-1.5766,-1.5774,-1.5689,-1.5689,-1.5689,-1.569,0,0,-1.5016,-1.5118,-1.513,-1.5166,-1.5243,-1.5288,-1.5343,-1.5411,-1.5442,-1.5499,-1.5547,-1.563,-1.5637,-1.5678,-1.5708,-1.5742,-1.578,-1.5745,-1.5747,-1.575,-1.5852,-1.5847,-1.5854,-1.5793,-1.5794,-1.5795,-1.5847,0,-1.506,-1.5159,-1.52,-1.5281,-1.5334,-1.5367,-1.5416,-1.5469,-1.5506,-1.5557,-1.5599,-1.5657,-1.5662,-1.5687,-1.5722,-1.5768,-1.5801,-1.5765,-1.5839,-1.5841,-1.5821,-1.5864,-1.5858,-1.5903,-1.5854,-1.5856,-1.5856,0,-1.5124,-1.518,-1.5266,-1.5337,-1.5361,-1.5404,-1.5469,-1.5517,-1.5579,-1.5604,-1.565,-1.5678,-1.5738,-1.573,-1.5815,-1.5789,-1.5822,-1.5849,-1.5852,-1.586,-1.585,-1.5873,-1.5919,-1.5926,-1.5868,-1.5867,-1.5866,0,-1.5129,-1.5226,-1.529,-1.532,-1.5405,-1.5434,-1.5471,-1.5531,-1.5569,-1.5627,-1.5652,-1.5716,-1.5752,-1.5801,-1.5846,-1.5836,-1.5926,-1.5922,-1.5949,-1.5948,-1.5967,-1.5965,-1.6018,-1.5988,-1.5988,-1.5988,-1.5987,0,-1.5173,-1.5224,-1.5293,-1.5332,-1.5391,-1.5438,-1.5495,-1.5535,-1.5588,-1.5637,-1.567,-1.5714,-1.5771,-1.5824,-1.5859,-1.5924,-1.594,-1.5962,-1.5971,-1.5959,-1.5956,-1.5981,-1.598,-1.5989,-1.5989,-1.5989,-1.5988,0,-1.5188,-1.5236,-1.5308,-1.5382,-1.5402,-1.5442,-1.5506,-1.5547,-1.5586,-1.5646,-1.5664,-1.5725,-1.5789,-1.5838,-1.5921,-1.5945,-1.6014,-1.6024,-1.5993,-1.5998,-1.6022,-1.6019,-1.6094,-1.6106,-1.6066,-1.6067,-1.6067,0,-1.5213,-1.5254,-1.5332,-1.5366,-1.5403,-1.5458,-1.5497,-1.5545,-1.5584,-1.5657,-1.5689,-1.5754,-1.581,-1.591,-1.5962,-1.6026,-1.6038,-1.606,-1.6048,-1.6035,-1.6039,-1.6036,-1.604,-1.6061,-1.6061,-1.6061,-1.6061,0,-1.5254,-1.5275,-1.533,-1.5393,-1.5438,-1.5491,-1.5544,-1.557,-1.5628,-1.5671,-1.5736,-1.5778,-1.5863,-1.5928,-1.5997,-1.6036,-1.6059,-1.6065,-1.6074,-1.6063,-1.6043,-1.6055,-1.5997,-1.6063,-1.6063,-1.6062,-1.6062,-1.6062,-1.5275,-1.5312,-1.5373,-1.5433,-1.5478,-1.5527,-1.5568,-1.5612,-1.5667,-1.5739,-1.5764,-1.5831,-1.5893,-1.5988,-1.6027,-1.6081,-1.6083,-1.6096,-1.61,-1.6103,-1.6102,-1.6035,-1.6094,-1.6094,-1.6094,-1.6094,-1.6094,0,-1.5317,-1.5358,-1.5412,-1.5485,-1.5533,-1.5549,-1.5608,-1.5647,-1.5705,-1.576,-1.5814,-1.5889,-1.5952,-1.601,-1.6076,-1.6108,-1.612,-1.6124,-1.6122,-1.6131,-1.6097,-1.6082,-1.6113,-1.6113,-1.6113,-1.6113,-1.6113,-1.6113,-1.5345,-1.5409,-1.5438,-1.5525,-1.5566,-1.5631,-1.5664,-1.5709,-1.5753,-1.5835,-1.5888,-1.5925,-1.5981,-1.6052,-1.6111,-1.6127,-1.615,-1.6151,-1.6169,-1.6136,-1.6133,-1.6131,-1.6117,-1.6156,-1.6156,-1.6199,-1.62,-1.62]},{"header":{"parameterUnit":"m.s-1","parameterCategory":1,"la1":30.2991,"la2":30.254,"lo1":-89.0895,"lo2":-89.0444,"dy":0.0017,"dx":0.0017,"nx":28,"ny":28,"refTime":"2024-05-23T21:00:00:Z","depth":0,"parameterNumber":3,"parameterNumberName":"V-component_of_WINDS"},"data":[0,0,0,0,0,0,0,0,0,0,0,0,0,0,0,0,0,0,0,0,0,0,0,0,0,0,0,0,0,0,0,0,0,0,0,0,0,0,0,0,0,0,0,0,0,0,0,0,0,0,0,0,0,0,0,0,0,0,4.8129,4.813,0,4.8213,4.8214,4.8215,4.8159,4.8157,4.8154,4.8152,4.8234,4.8238,4.8243,0,0,0,0,0,0,0,0,0,0,0,0,0,4.7915,4.7919,4.8129,4.813,4.8131,4.8213,4.8214,4.8216,4.816,4.8157,4.8154,4.8151,4.8233,4.8238,4.8243,0,0,0,0,0,0,0,0,0,0,0,0,0,4.8004,4.7921,4.8129,4.8113,4.8113,4.8213,4.8214,4.8216,4.8161,4.8157,4.8153,4.8149,4.8231,4.8237,4.8244,4.8363,0,0,4.8265,4.8268,0,0,0,0,0,0,0,0,4.7999,4.8012,4.8115,4.8115,4.8114,4.8172,4.8169,4.8265,4.8162,4.8142,4.8152,4.8147,4.8216,4.8224,4.8248,4.8367,4.837,4.8266,4.827,4.8273,4.8275,0,0,0,0,0,0,0,4.7993,4.8008,4.8162,4.8116,4.8116,4.8101,4.8109,4.8187,4.82,4.8144,4.814,4.8151,4.8215,4.8242,4.825,4.8371,4.8265,4.8272,4.8276,4.8278,4.8589,4.8593,0,0,0,0,0,0,4.7989,4.8004,4.816,4.8165,4.8046,4.8108,4.8117,4.8157,4.8199,4.8201,4.8154,4.8148,4.8232,4.8242,4.8252,4.8392,4.8273,4.8279,4.8283,4.8585,4.859,4.8595,0,0,0,0,0,0,4.7985,4.8004,4.8156,4.8083,4.8102,4.8115,4.8161,4.8161,4.8187,4.8206,4.8208,4.8179,4.8229,4.8243,4.8336,4.8394,4.8282,4.8288,4.858,4.8587,4.8592,4.8675,0,0,0,0,0,0,4.7979,4.8002,4.8049,4.8085,4.8106,4.824,4.8165,4.8165,4.82,4.8193,4.823,4.8233,4.8227,4.8326,4.8342,4.8402,4.8294,4.8575,4.8583,4.859,4.8667,4.8683,4.8697,0,0,0,0,0,4.7971,4.8068,4.8052,4.8071,4.8164,4.8244,4.8255,4.8248,4.8205,4.8251,4.8263,4.8231,4.8386,4.8336,4.8354,4.8416,4.8571,4.8581,4.859,4.866,4.868,4.8696,0,0,0,0,0,0,4.8038,4.8073,4.8055,4.8166,4.8203,4.8234,4.8292,4.827,4.8318,4.8309,4.8297,4.8306,4.8403,4.8419,4.8363,4.8532,4.8471,4.8485,4.8518,4.8537,4.8552,4.8545,4.8299,0,0,0,0,0,4.8066,4.8129,4.8155,4.8251,4.827,4.8278,4.8312,4.8304,4.834,4.8355,4.8374,4.8409,4.8465,4.8502,4.8555,4.8669,4.8675,4.8721,4.8736,4.8748,4.8759,4.8819,4.8839,4.8625,4.8625,4.8625,0,0,4.8124,4.815,4.8191,4.8265,4.8292,4.8355,4.8291,4.8362,4.8408,4.8365,4.8454,4.8469,4.8507,4.8611,4.8657,4.8627,4.882,4.876,4.877,4.8774,4.883,4.885,4.8868,4.8632,4.863,4.8629,0,0,4.8261,4.8289,4.8371,4.8399,4.8441,4.8446,4.8465,4.85,4.8509,4.8598,4.8567,4.8621,4.8718,4.8746,4.8773,4.892,4.8893,4.8938,4.9016,4.9074,4.9091,4.9106,4.9156,4.9175,4.8949,4.895,4.895,0,4.8327,4.8424,4.8416,4.8488,4.8521,4.8486,4.8568,4.8595,4.8652,4.8674,4.864,4.8761,4.8784,4.8893,4.8929,4.8952,4.8973,4.8933,4.9089,4.9104,4.9118,4.9166,4.9185,4.8955,4.8954,4.8954,4.8953,0,4.8502,4.8569,4.863,4.8686,4.8726,4.8802,4.8804,4.8845,4.8833,4.884,4.893,4.8957,4.9014,4.9039,4.9028,4.9146,4.9126,4.9091,4.9029,4.9143,4.9188,4.9207,4.8962,4.896,4.8959,4.8957,0,0,4.8684,4.8734,4.8757,4.8781,4.8824,4.8875,4.8949,4.9006,4.904,4.908,4.914,4.9223,4.9191,4.9222,4.9213,4.9264,4.9376,4.9222,4.9223,4.9249,4.9506,4.9531,4.9553,4.9359,4.9362,4.9365,4.9502,0,4.8822,4.8953,4.8948,4.9069,4.913,4.9097,4.9161,4.9194,4.9202,4.9253,4.9262,4.9321,4.9274,4.9292,4.9342,4.9353,4.9428,4.9343,4.9413,4.9416,4.9403,4.9576,4.9603,4.9731,4.952,4.9523,4.9525,0,4.9002,4.9049,4.9177,4.9209,4.9234,4.9293,4.9343,4.9393,4.9428,4.9431,4.9465,4.9447,4.952,4.9458,4.9557,4.9499,4.9527,4.9537,4.9542,4.9547,4.9476,4.9584,4.9772,4.9791,4.9553,4.9551,4.9549,0,4.912,4.9214,4.9303,4.9325,4.9366,4.9407,4.9426,4.9457,4.9491,4.9535,4.9556,4.9608,4.9635,4.9675,4.9671,4.9626,4.9771,4.9708,4.9773,4.9773,4.9804,4.9802,4.9998,4.9825,4.9825,4.9825,4.9824,0,4.9274,4.9354,4.9356,4.941,4.9497,4.9489,4.9575,4.9589,4.9617,4.9672,4.9646,4.9698,4.969,4.9742,4.9739,4.982,4.9834,4.9836,4.9834,4.9838,4.9837,4.9855,4.9846,4.983,4.9829,4.9828,4.9827,0,4.942,4.9426,4.9519,4.955,4.956,4.9622,4.9648,4.9698,4.9704,4.9774,4.979,4.9799,4.9858,4.9858,4.9926,4.9924,5.0023,5.0012,5.0011,5.0009,5.0073,5.0066,5.0286,5.0313,5.0124,5.0126,5.0128,0,4.9518,4.9578,4.9616,4.9651,4.9673,4.973,4.9764,4.9758,4.9795,4.9839,4.9883,4.994,4.9985,5.008,5.0092,5.0143,5.0132,5.0205,5.0139,5.014,5.0131,5.0127,5.0132,5.0217,5.022,5.0221,5.0223,0,4.9691,4.969,4.9741,4.9794,4.9835,4.9876,4.9913,4.9943,4.9941,4.9983,5.0043,5.0078,5.0147,5.0203,5.0252,5.0269,5.0245,5.0244,5.0261,5.0264,5.0261,5.0262,5.0045,5.0238,5.0237,5.0236,5.0235,5.0234,4.9815,4.9866,4.99,4.9957,4.9985,5.002,5.0068,5.0081,5.0131,5.0187,5.018,5.0247,5.0278,5.0342,5.0363,5.0414,5.0388,5.0414,5.042,5.0426,5.0433,5.0254,5.0423,5.0423,5.0422,5.0422,5.0422,0,4.9984,5.0005,5.0058,5.0111,5.0155,5.013,5.017,5.0208,5.0268,5.03,5.0345,5.0413,5.0467,5.0483,5.0534,5.0572,5.0562,5.0585,5.0582,5.0586,5.0454,5.0433,5.0592,5.0592,5.0592,5.0592,5.0592,5.0592,5.0078,5.0163,5.0166,5.0263,5.0282,5.0348,5.0372,5.0404,5.0429,5.0507,5.0552,5.0563,5.0588,5.064,5.0688,5.0691,5.071,5.0738,5.0737,5.0613,5.0595,5.0579,5.0559,5.0743,5.0743,5.0864,5.0865,5.0866]}]]